Regional Weather Roundup
Issued by NWS

Home | Current Version | Previous Version | Graphics & Text | Print | Product List | Glossary On
Versions: 1 2 3 4 5 6 7 8 9 10 11 12 13 14 15 16 17 18 19 20 21 22 23 24 25 26 27 28 29 30 31 32 33 34 35 36 37 38 39 40 41 42 43 44 45 46 47 48 49 50
000
ASUS45 KPSR 181410
RWRAZ

ARIZONA REGIONAL HOURLY WEATHER ROUNDUP
NATIONAL WEATHER SERVICE PHOENIX AZ
700 AM MST SAT APR 18 2015

NOTE: FAIR INDICATES FEW OR NO CLOUDS BELOW 12,000 FEET WITH NO
SIGNIFICANT WEATHER AND/OR OBSTRUCTIONS TO VISIBILITY.

AZZ001>003-036-181500-
NORTHWEST ARIZONA

CITY           SKY/WX    TMP DP  RH WIND       PRES   REMARKS
BULLHEAD CITY  SUNNY     59  16  18 CALM      29.96R
KINGMAN        SUNNY     49  21  33 W3        30.02R
$$

AZZ004>008-015-016-018-181500-
NORTH CENTRAL ARIZONA

CITY           SKY/WX    TMP DP  RH WIND       PRES   REMARKS
GRAND CANYON   SUNNY     29  24  82 CALM      30.12R
WILLIAMS       SUNNY     36  23  60 S5        30.19R WCI  32
PRESCOTT       SUNNY     44  25  47 S3        30.08R
FLAGSTAFF      SUNNY     38  22  52 W6        30.12R WCI  33
PAYSON         SUNNY     50  21  32 CALM      30.09S
PAGE           SUNNY     50  36  58 CALM      30.04R
$$

AZZ009>014-017-181500-
NORTHEAST ARIZONA

CITY           SKY/WX    TMP DP  RH WIND       PRES   REMARKS
WINSLOW        SUNNY     44  27  51 S3        30.07R
SAINT JOHNS    CLOUDY    46  25  43 W9        30.07R
WINDOW ROCK    MOSUNNY   40  28  62 N5        30.06R
SHOW LOW       CLOUDY    43  18  36 S6        30.11R
$$

AZZ023-181500-
GREATER PHOENIX AREA

CITY           SKY/WX    TMP DP  RH WIND       PRES   REMARKS
PHOENIX        MOSUNNY   60  26  27 E7        29.96R
BUCKEYE        SUNNY     61  23  23 E3        29.98R
GLENDALE       MOSUNNY   57  32  38 N5        29.98
LUKE AFB       SUNNY     58  34  40 N2        29.96R
DEER VALLEY    SUNNY     58  23  26 CALM      29.98R
SCOTTSDALE     SUNNY     59  27  29 CALM      29.99R
MESA-FALCON    SUNNY     57  23  26 NE9       29.97R
MESA-GATEWAY   MOSUNNY   52  27  37 E7        29.99R
CHANDLER       MOSUNNY   55  28  35 CALM      29.98R
$$

AZZ027-028-181500-
SOUTHWEST MARICOPA COUNTY AND PINAL COUNTY

CITY           SKY/WX    TMP DP  RH WIND       PRES   REMARKS
CASA GRANDE    SUNNY     54  19  26 CALM      29.98R
GILA BEND      FAIR      60  17  18 S7        29.97R
$$

AZZ503-504-507>509-181500-
SOUTHEAST ARIZONA

CITY           SKY/WX    TMP DP  RH WIND       PRES   REMARKS
TUCSON         SUNNY     52  22  30 S7        30.06R
DAVIS-MONTHAN  SUNNY     52  20  28 S3        30.04R
RYAN FIELD       N/A     52  19  28 CALM      30.06R
NOGALES        SUNNY     45  23  42 CALM      30.08R
SIERRA VISTA   SUNNY     56  14  18 W9        30.10R
DOUGLAS        SUNNY     47  21  35 CALM      30.09R
SAFFORD        MOSUNNY   47  16  29 SE3       30.02R
$$

AZZ020-021-025-026-031-181500-
SOUTHWEST ARIZONA

CITY           SKY/WX    TMP DP  RH WIND       PRES   REMARKS
YUMA           SUNNY     62  35  36 CALM      29.94R
$$

CAZ031-033-041-043-047-048-061-181500-
SOUTHERN CALIFORNIA

CITY           SKY/WX    TMP DP  RH WIND       PRES   REMARKS
DOWNTOWN L.A.  CLEAR     57  43  59 CALM      30.00R
L.A. AIRPORT   PTCLDY    57  47  69 CALM      30.01R
SAN DIEGO      CLEAR     60  36  40 CALM      30.04R
BURBANK        CLEAR     55  30  38 CALM      30.01R
ONTARIO        CLEAR     56  33  42 VRB3      30.02R
RIVERSIDE      CLEAR     52  33  48 CALM      30.02R
PALM SPRINGS   CLEAR     65  28  24 N3        29.95R
EL CENTRO NAS  CLEAR     62  20  19 SW7       29.92R
IMPERIAL       CLEAR     61  25  25 CALM      29.92R
BLYTHE         SUNNY     58  22  24 NW6       29.94R
NEEDLES        SUNNY     62  12  14 N3        29.94R
$$

NVZ020-UTZ003-181500-
SOUTHERN NEVADA-UTAH

CITY           SKY/WX    TMP DP  RH WIND       PRES   REMARKS
LAS VEGAS      SUNNY     59  20  22 S8        29.95R
SALT LAKE CITY MOSUNNY   45  37  73 S3        30.04R
$$

NMZ009-TXZ055-181500-
NEW MEXICO-WEST TEXAS

CITY           SKY/WX    TMP DP  RH WIND       PRES   REMARKS
ALBUQUERQUE    PTSUNNY   42  28  57 NE6       30.01R
EL PASO        MOSUNNY   57  13  17 W5        30.02R
$$


........................KEY........................
SKY/WX - SKY CONDITION/WEATHER
TMP    - TEMPERATURE IN FAHRENHEIT
DP     - DEW POINT IN FAHRENHEIT
RH     - RELATIVE HUMIDITY IN PERCENT
WIND   - DIRECTION AND SPEED IN MILES PER HOUR (MPH)
VRB    - VARIABLE WIND DIRECTION
PRES   - MEAN SEA LEVEL PRESSURE IN INCHES OF MERCURY
         F - FALLING PRESSURE   R - RISING PRESSURE
         S - STEADY PRESSURE
VSB    - VISIBILITY IN MILES
HX     - HEAT INDEX IN FAHRENHEIT
WCI    - WIND CHILL INDEX IN FAHRENHEIT
TC     - TEMPERATURE IN CELSIUS WHICH IS ALSO KNOWN AS
         TEMPERATURE IN CENTIGRADE
AFB    - AIR FORCE BASE
         LUKE AFB IS LUKE AIR FORCE BASE
         DAVIS-MONTHAN IS DAVIS-MONTHAN AIR FORCE BASE
NAS    - NAVAL AIR STATION
         EL CENTRO NAS IS EL CENTRO NAVAL AIR STATION
N/A    - NOT AVAILABLE



USA.gov is the U.S. government's official web portal to all federal, state and local government web resources and services.